This demonstration page uses our WeatherBlox Daily Observations layout. Learn more.

40.92945, -100.16068

Hourly Observations for December 19, 2016

Temp ( °F °C ) Dew Point ( °F °C ) Humidity (%) Winds ( mph kmh ) Pressure ( in mb ) Visibility ( mi km ) Precip ( " mm )
12:15 am 00:15 Clear 2 -16.7 -3 -19.4 80 80 Calm 30.71 1040 10 16.0934 N/A
12:35 am 00:35 Clear 3 -16.2 -3 -19.2 78 78 E 3 6 30.71 1040 10 16.0934 N/A
12:55 am 00:55 Clear 0 -18 -5 -20.7 80 80 ESE 3 6 30.68 1039 10 16.0934 N/A
1:15 am 01:15 Clear 0 -17.8 -5 -20.3 81 81 Calm 30.68 1039 10 16.0934 N/A
1:35 am 01:35 Clear 0 -17.7 -5 -20.3 80 80 Calm 30.68 1039 10 16.0934 N/A
1:55 am 01:55 Clear -3 -19.3 -7 -21.9 80 80 Calm 30.71 1040 10 16.0934 N/A
2:15 am 02:15 Clear -2 -19.1 -7 -21.9 79 79 WNW 7 11 30.71 1040 10 16.0934 N/A
2:35 am 02:35 Clear 0 -17.9 -5 -20.8 78 78 Calm 30.68 1039 10 16.0934 N/A
2:55 am 02:55 Clear 2 -16.8 -3 -19.4 80 80 W 8 13 30.68 1039 10 16.0934 N/A
3:15 am 03:15 Clear 5 -15.1 -1 -18.2 77 77 W 7 11 30.65 1038 10 16.0934 N/A
3:35 am 03:35 Clear 2 -16.6 -3 -19.6 78 78 WNW 5 7 30.68 1039 10 16.0934 N/A
3:55 am 03:55 Clear 2 -16.8 -4 -19.9 77 77 WNW 3 6 30.68 1039 10 16.0934 N/A
4:15 am 04:15 Clear 0 -18 -5 -20.7 80 80 W 3 6 30.68 1039 10 16.0934 N/A
4:35 am 04:35 Clear 1 -17.4 -4 -20.2 79 79 Calm 30.68 1039 10 16.0934 N/A
4:55 am 04:55 Clear 1 -17.2 -4 -20 79 79 WNW 6 9 30.68 1039 10 16.0934 N/A
5:15 am 05:15 Clear -1 -18.4 -6 -21.3 78 78 NNW 3 6 30.71 1040 10 16.0934 N/A
5:35 am 05:35 Clear 0 -17.7 -5 -20.4 80 80 W 5 7 30.68 1039 10 16.0934 N/A
5:55 am 05:55 Clear -1 -18.2 -7 -21.6 75 75 Calm 30.71 1040 10 16.0934 N/A
6:15 am 06:15 Clear 1 -17.4 -5 -20.4 78 78 WNW 5 7 30.68 1039 10 16.0934 N/A
6:35 am 06:35 Clear 1 -17.3 -5 -20.6 76 76 WNW 5 7 30.68 1039 10 16.0934 N/A
6:55 am 06:55 Clear 0 -18 -6 -21.1 77 77 NW 9 15 30.68 1039 10 16.0934 N/A
7:15 am 07:15 Clear 0 -17.7 -5 -20.7 78 78 W 7 11 30.68 1039 10 16.0934 N/A
7:35 am 07:35 Clear 1 -17.4 -5 -20.4 78 78 W 3 6 30.68 1039 10 16.0934 N/A
7:55 am 07:55 Clear 1 -17.1 -5 -20.5 75 75 WNW 6 9 30.68 1039 10 16.0934 N/A
8:15 am 08:15 Sunny -1 -18.5 -7 -21.8 75 75 W 3 6 30.71 1040 10 16.0934 N/A
8:35 am 08:35 Sunny 1 -17.5 -4 -20.2 80 80 W 3 6 30.68 1039 10 16.0934 N/A
8:55 am 08:55 Sunny 5 -14.8 0 -17.8 78 78 Calm 30.65 1038 10 16.0934 N/A
9:15 am 09:15 Sunny 9 -12.9 2 -16.4 75 75 W 5 7 30.62 1037 10 16.0934 N/A
9:35 am 09:35 Sunny 11 -11.5 4 -15.5 73 73 W 5 7 30.62 1037 10 16.0934 N/A
9:55 am 09:55 Sunny 14 -10.2 5 -15 68 68 W 5 7 30.59 1036 10 16.0934 N/A
10:15 am 10:15 Sunny 16 -8.9 6 -14.2 66 66 Calm 30.59 1036 10 16.0934 N/A
10:35 am 10:35 Sunny 19 -7.2 8 -13.4 62 62 Calm 30.56 1035 10 16.0934 N/A
10:55 am 10:55 Sunny 22 -5.5 9 -13 56 56 Calm 30.56 1035 10 16.0934 N/A
11:15 am 11:15 Sunny 26 -3.2 10 -12.2 50 50 Calm 30.5 1033 10 16.0934 N/A
11:35 am 11:35 Sunny 33 0.5 8 -13.4 35 35 WSW 8 13 30.48 1032 10 16.0934 N/A
11:55 am 11:55 Sunny 35 1.6 9 -13 33 33 WSW 10 17 30.42 1030 10 16.0934 N/A
12:15 pm 12:15 Sunny 37 2.7 10 -12.2 33 33 SW 13 20 30.39 1029 10 16.0934 N/A
12:35 pm 12:35 Sunny 37 3 10 -12.2 32 32 SW 15 24 30.39 1029 10 16.0934 N/A
12:55 pm 12:55 Sunny 38 3.2 11 -11.9 32 32 SSW 16 26 30.33 1027 10 16.0934 N/A
1:15 pm 13:15 Sunny 36 2.4 12 -11.2 36 36 SSW 18 30 30.33 1027 10 16.0934 N/A
1:35 pm 13:35 Sunny 37 2.5 13 -10.5 38 38 S 14 22 30.33 1027 10 16.0934 N/A
1:55 pm 13:55 Sunny 38 3.3 14 -10.2 37 37 SW 16 26 30.3 1026 10 16.0934 N/A
2:15 pm 14:15 Sunny 37 2.5 13 -10.3 39 39 SSW 15 24 30.27 1025 10 16.0934 N/A
2:35 pm 14:35 Sunny 37 2.5 14 -9.8 40 40 SSW 15 24 30.27 1025 10 16.0934 N/A
2:55 pm 14:55 Sunny 37 2.7 15 -9.4 41 41 SSW 18 30 30.27 1025 10 16.0934 N/A
3:15 pm 15:15 Sunny 39 3.9 17 -8.1 42 42 SSW 14 22 30.24 1024 10 16.0934 N/A
3:35 pm 15:35 Sunny 40 4.2 18 -8 41 41 SSW 14 22 30.24 1024 10 16.0934 N/A
3:55 pm 15:55 Sunny 40 4.3 18 -7.8 41 41 SSW 10 17 30.24 1024 10 16.0934 N/A
4:15 pm 16:15 Sunny 40 4.6 19 -7.4 42 42 SSW 15 24 30.21 1023 10 16.0934 N/A
4:35 pm 16:35 Sunny 40 4.7 19 -7.3 42 42 SSW 9 15 30.21 1023 10 16.0934 N/A
4:55 pm 16:55 Sunny 39 4.1 18 -7.7 42 42 SSW 9 15 30.21 1023 10 16.0934 N/A
5:15 pm 17:15 Clear 37 3 18 -7.6 46 46 S 13 20 30.18 1022 10 16.0934 N/A
5:35 pm 17:35 Clear 35 1.9 19 -7.5 50 50 S 13 20 30.18 1022 10 16.0934 N/A
5:55 pm 17:55 Clear 36 2.3 19 -7.5 49 49 S 12 19 30.18 1022 10 16.0934 N/A
6:15 pm 18:15 Clear 35 1.5 19 -7 54 54 S 13 20 30.21 1023 10 16.0934 N/A
6:35 pm 18:35 Clear 35 1.5 19 -7 54 54 S 14 22 30.21 1023 10 16.0934 N/A
6:55 pm 18:55 Clear 34 1 19 -7.3 54 54 S 15 24 30.21 1023 10 16.0934 N/A
7:15 pm 19:15 Clear 33 0.8 19 -7.2 55 55 S 14 22 30.21 1023 10 16.0934 N/A
7:35 pm 19:35 Clear 32 0 19 -7.3 58 58 S 12 19 30.18 1022 10 16.0934 N/A
7:55 pm 19:55 Clear 32 0 19 -7.4 58 58 S 9 15 30.18 1022 10 16.0934 N/A
8:15 pm 20:15 Clear 31 -0.4 19 -7.2 60 60 SSW 6 9 30.18 1022 10 16.0934 N/A
8:35 pm 20:35 Clear 32 -0.2 19 -7.4 59 59 SSW 6 9 30.18 1022 10 16.0934 N/A
8:55 pm 20:55 Clear 31 -0.7 18 -7.6 60 60 S 7 11 30.18 1022 10 16.0934 N/A
9:15 pm 21:15 Clear 29 -1.4 18 -7.7 63 63 S 5 7 30.18 1022 10 16.0934 N/A
9:35 pm 21:35 Clear 29 -1.6 18 -7.7 64 64 S 7 11 30.18 1022 10 16.0934 N/A
9:55 pm 21:55 Clear 28 -2.1 17 -8.1 64 64 S 6 9 30.21 1023 10 16.0934 N/A
10:15 pm 22:15 Clear 28 -2.5 17 -8.1 66 66 SSE 5 7 30.21 1023 10 16.0934 N/A
10:35 pm 22:35 Clear 28 -2.1 17 -8.1 64 64 WSW 5 7 30.21 1023 10 16.0934 N/A
10:55 pm 22:55 Clear 27 -2.7 17 -8.4 65 65 N 6 9 30.21 1023 10 16.0934 N/A
11:15 pm 23:15 Clear 27 -2.8 17 -8.4 66 66 WNW 3 6 30.21 1023 10 16.0934 N/A
11:35 pm 23:35 Clear 24 -4.6 16 -8.8 73 73 Calm 30.21 1023 10 16.0934 N/A
11:55 pm 23:55 Clear 25 -4 16 -8.7 70 70 W 5 7 30.21 1023 10 16.0934 N/A

Powered by AerisWeather